[[{"header":{"parameterUnit":"m.s-1","parameterCategory":1,"la1":30.2991,"la2":30.254,"lo1":-89.0895,"lo2":-89.0444,"dy":0.0017,"dx":0.0017,"nx":28,"ny":28,"refTime":"2025-01-24T09:00:00:Z","depth":0,"parameterNumber":2,"parameterNumberName":"U-component_of_WINDS"},"data":[0,0,0,0,0,0,0,0,0,0,0,0,0,0,0,0,0,0,0,0,0,0,0,0,0,0,0,0,0,0,0,0,0,0,0,0,0,0,0,0,0,0,0,0,0,0,0,0,0,0,0,0,0,0,0,0,0,0,3.4833,3.4834,0,3.4874,3.4875,3.4875,3.4862,3.4862,3.4861,3.486,3.4902,3.4904,3.4906,0,0,0,0,0,0,0,0,0,0,0,0,0,3.4743,3.4745,3.4833,3.4834,3.4834,3.4874,3.4875,3.4875,3.4863,3.4861,3.486,3.4859,3.4901,3.4903,3.4906,0,0,0,0,0,0,0,0,0,0,0,0,0,3.4783,3.4745,3.4833,3.4833,3.4833,3.4874,3.4875,3.4875,3.4863,3.4861,3.486,3.4859,3.49,3.4903,3.4906,3.495,0,0,3.4915,3.4916,0,0,0,0,0,0,0,0,3.4781,3.4786,3.4832,3.4833,3.4833,3.4862,3.4858,3.49,3.4863,3.4851,3.486,3.4858,3.489,3.4893,3.4904,3.4952,3.4954,3.4915,3.4917,3.4918,3.4919,0,0,0,0,0,0,0,3.4778,3.4785,3.4849,3.4833,3.4833,3.483,3.4834,3.4866,3.4877,3.4852,3.4852,3.4857,3.489,3.4901,3.4905,3.4954,3.4915,3.4918,3.4919,3.4921,3.5041,3.5042,0,0,0,0,0,0,3.4775,3.4782,3.4848,3.4851,3.4803,3.4833,3.4838,3.4854,3.4877,3.4879,3.4858,3.4856,3.4897,3.4901,3.4906,3.496,3.4918,3.4921,3.4922,3.504,3.5041,3.5043,0,0,0,0,0,0,3.4773,3.4781,3.4846,3.4816,3.4824,3.4836,3.4854,3.4855,3.4867,3.4881,3.4883,3.4867,3.4896,3.4902,3.4939,3.4961,3.4922,3.4925,3.5038,3.504,3.5042,3.5067,0,0,0,0,0,0,3.4771,3.478,3.4797,3.4817,3.4826,3.4879,3.4856,3.4857,3.4872,3.487,3.4891,3.4893,3.4895,3.4935,3.4942,3.4964,3.4927,3.5036,3.5039,3.5041,3.5064,3.507,3.5074,0,0,0,0,0,3.4767,3.4802,3.4798,3.4806,3.4847,3.488,3.4886,3.4888,3.4874,3.4891,3.49,3.4892,3.4957,3.4939,3.4947,3.497,3.5035,3.5038,3.5041,3.5062,3.5068,3.5074,0,0,0,0,0,0,3.4785,3.4805,3.4801,3.4843,3.486,3.4878,3.49,3.4895,3.4916,3.4914,3.4915,3.492,3.4959,3.4968,3.4947,3.5014,3.4994,3.4999,3.5007,3.5013,3.5018,3.5015,3.4929,0,0,0,0,0,3.4794,3.4819,3.4835,3.4871,3.488,3.4888,3.4903,3.4903,3.4921,3.4928,3.494,3.4957,3.4982,3.4998,3.5021,3.5065,3.507,3.5085,3.509,3.5094,3.5099,3.5123,3.513,3.5054,3.5054,3.5054,0,0,3.4813,3.4827,3.4842,3.4875,3.4888,3.4914,3.4895,3.4923,3.4942,3.4932,3.4969,3.4978,3.4997,3.5038,3.5057,3.5047,3.512,3.5098,3.5101,3.5104,3.5127,3.5134,3.5141,3.5056,3.5056,3.5055,0,0,3.486,3.4873,3.4905,3.4918,3.4939,3.4944,3.4952,3.4971,3.4976,3.5013,3.5006,3.5029,3.507,3.5085,3.5098,3.515,3.5144,3.5158,3.5185,3.5208,3.5214,3.522,3.5239,3.5246,3.5162,3.5162,3.5162,0,3.4881,3.492,3.4921,3.4951,3.4965,3.4957,3.4989,3.5002,3.5029,3.504,3.5028,3.5081,3.5093,3.5138,3.5151,3.5161,3.517,3.5156,3.5213,3.5219,3.5224,3.5242,3.525,3.5164,3.5164,3.5163,3.5163,0,3.4945,3.4972,3.4995,3.5022,3.5039,3.5069,3.5075,3.5092,3.5091,3.5097,3.5134,3.5149,3.5175,3.5186,3.5184,3.523,3.5223,3.5213,3.5193,3.5233,3.525,3.5257,3.5166,3.5165,3.5165,3.5165,0,0,3.5006,3.5032,3.5041,3.5053,3.5075,3.5096,3.5125,3.5151,3.5166,3.5185,3.521,3.5246,3.5236,3.525,3.5251,3.5271,3.5313,3.5258,3.5259,3.5269,3.5365,3.5373,3.5382,3.5308,3.531,3.5311,3.5363,0,3.5056,3.5109,3.5111,3.5159,3.5185,3.5177,3.5203,3.5219,3.5226,3.5248,3.5256,3.5281,3.5266,3.5275,3.5295,3.5304,3.5332,3.53,3.5333,3.5334,3.5329,3.5391,3.54,3.5449,3.537,3.5371,3.5372,0,3.5122,3.5143,3.5194,3.5212,3.5223,3.5246,3.527,3.5291,3.5309,3.5313,3.5329,3.5326,3.5357,3.5335,3.5377,3.5355,3.5368,3.5374,3.5376,3.538,3.5356,3.5397,3.5464,3.5472,3.5383,3.5382,3.5381,0,3.5162,3.5203,3.5239,3.5249,3.5271,3.5288,3.5298,3.5314,3.533,3.535,3.536,3.5384,3.5397,3.5416,3.5419,3.5403,3.5462,3.544,3.5466,3.5466,3.548,3.5479,3.5551,3.5487,3.5487,3.5486,3.5486,0,3.5219,3.525,3.5257,3.528,3.5315,3.5316,3.5351,3.536,3.5375,3.5398,3.5393,3.5415,3.5418,3.5441,3.5444,3.5479,3.5485,3.5489,3.5489,3.549,3.5489,3.5499,3.5496,3.5488,3.5488,3.5488,3.5487,0,3.527,3.5276,3.5315,3.5332,3.5337,3.5363,3.5378,3.5399,3.5405,3.5435,3.5442,3.5451,3.5478,3.5483,3.5515,3.5517,3.5559,3.5555,3.5553,3.5553,3.5578,3.5576,3.566,3.5671,3.5599,3.56,3.56,0,3.5307,3.5331,3.5351,3.5366,3.5377,3.5402,3.5418,3.542,3.5436,3.5459,3.5477,3.5503,3.5525,3.5568,3.5577,3.5601,3.5599,3.5627,3.5603,3.5603,3.5601,3.56,3.5602,3.5632,3.5633,3.5633,3.5634,0,3.5371,3.5372,3.5395,3.5419,3.5438,3.5457,3.5475,3.5488,3.5492,3.5511,3.5538,3.5555,3.5587,3.5613,3.5637,3.5647,3.5641,3.5641,3.5648,3.565,3.5648,3.565,3.5566,3.5639,3.5639,3.5638,3.5638,3.5638,3.5416,3.5438,3.5455,3.5481,3.5494,3.5511,3.5532,3.554,3.5563,3.559,3.559,3.562,3.5637,3.5668,3.568,3.5703,3.5695,3.5705,3.5708,3.5711,3.5714,3.5643,3.5708,3.5707,3.5707,3.5707,3.5707,0,3.5481,3.5492,3.5515,3.554,3.5561,3.5553,3.5572,3.559,3.5616,3.5633,3.5654,3.5685,3.571,3.5721,3.5746,3.5763,3.5761,3.577,3.5769,3.5771,3.572,3.5711,3.5771,3.5771,3.5771,3.5771,3.5771,3.5771,3.5517,3.5553,3.5557,3.5599,3.5609,3.5639,3.5651,3.5666,3.5679,3.5715,3.5736,3.5743,3.5757,3.5783,3.5806,3.5808,3.5818,3.5828,3.5829,3.5781,3.5775,3.5769,3.5761,3.583,3.583,3.5879,3.588,3.588]},{"header":{"parameterUnit":"m.s-1","parameterCategory":1,"la1":30.2991,"la2":30.254,"lo1":-89.0895,"lo2":-89.0444,"dy":0.0017,"dx":0.0017,"nx":28,"ny":28,"refTime":"2025-01-24T09:00:00:Z","depth":0,"parameterNumber":3,"parameterNumberName":"V-component_of_WINDS"},"data":[0,0,0,0,0,0,0,0,0,0,0,0,0,0,0,0,0,0,0,0,0,0,0,0,0,0,0,0,0,0,0,0,0,0,0,0,0,0,0,0,0,0,0,0,0,0,0,0,0,0,0,0,0,0,0,0,0,0,-2.0847,-2.0846,0,-2.0778,-2.0777,-2.0777,-2.0742,-2.0742,-2.0742,-2.0742,-2.0669,-2.0667,-2.0666,0,0,0,0,0,0,0,0,0,0,0,0,0,-2.0949,-2.0948,-2.0847,-2.0846,-2.0845,-2.0778,-2.0777,-2.0776,-2.0742,-2.0742,-2.0742,-2.0742,-2.067,-2.0668,-2.0665,0,0,0,0,0,0,0,0,0,0,0,0,0,-2.0895,-2.0947,-2.0847,-2.082,-2.0817,-2.0778,-2.0777,-2.0776,-2.0742,-2.0742,-2.0742,-2.0742,-2.0671,-2.0668,-2.0665,-2.0647,0,0,-2.0656,-2.0655,0,0,0,0,0,0,0,0,-2.0898,-2.0891,-2.0825,-2.0822,-2.0819,-2.0769,-2.0787,-2.0733,-2.0742,-2.0771,-2.0742,-2.0742,-2.0702,-2.0697,-2.0684,-2.0644,-2.0641,-2.0656,-2.0654,-2.0653,-2.0652,0,0,0,0,0,0,0,-2.0902,-2.0894,-2.082,-2.0824,-2.082,-2.0812,-2.0804,-2.0776,-2.0737,-2.0768,-2.0765,-2.0758,-2.07,-2.0687,-2.0682,-2.064,-2.0656,-2.0653,-2.0652,-2.0651,-2.0585,-2.0585,0,0,0,0,0,0,-2.091,-2.0897,-2.0822,-2.0818,-2.0859,-2.081,-2.0801,-2.0785,-2.0737,-2.073,-2.0758,-2.0757,-2.0692,-2.0685,-2.0679,-2.0657,-2.0653,-2.065,-2.0649,-2.0585,-2.0585,-2.0585,0,0,0,0,0,0,-2.0913,-2.0904,-2.0825,-2.0857,-2.0846,-2.0808,-2.079,-2.0783,-2.077,-2.073,-2.0723,-2.0751,-2.0691,-2.0683,-2.0656,-2.0654,-2.0649,-2.0646,-2.0585,-2.0585,-2.0585,-2.0611,0,0,0,0,0,0,-2.0916,-2.0905,-2.0897,-2.0857,-2.0845,-2.0803,-2.079,-2.0782,-2.0765,-2.0762,-2.0721,-2.0715,-2.0691,-2.0661,-2.0653,-2.065,-2.0644,-2.0585,-2.0585,-2.0585,-2.0611,-2.0612,-2.0614,0,0,0,0,0,-2.0919,-2.0906,-2.0897,-2.0888,-2.0834,-2.0803,-2.0796,-2.0769,-2.0765,-2.0757,-2.0732,-2.0716,-2.0656,-2.0658,-2.065,-2.0645,-2.0585,-2.0585,-2.0585,-2.061,-2.0612,-2.0614,0,0,0,0,0,0,-2.0946,-2.09,-2.089,-2.0863,-2.0837,-2.0797,-2.0786,-2.0772,-2.0746,-2.0744,-2.0712,-2.0703,-2.068,-2.066,-2.0664,-2.0627,-2.0619,-2.0617,-2.0641,-2.0643,-2.0644,-2.0649,-2.0642,0,0,0,0,0,-2.0949,-2.0927,-2.0889,-2.0869,-2.0857,-2.0824,-2.0809,-2.0792,-2.0763,-2.0752,-2.0724,-2.0697,-2.0672,-2.0656,-2.0631,-2.0608,-2.0599,-2.0601,-2.0603,-2.0604,-2.0603,-2.0592,-2.0592,-2.0585,-2.0585,-2.0585,0,0,-2.0954,-2.0927,-2.0915,-2.0874,-2.0852,-2.083,-2.0815,-2.0792,-2.0776,-2.0748,-2.0721,-2.0701,-2.0668,-2.0644,-2.0632,-2.0627,-2.0604,-2.0604,-2.0606,-2.0603,-2.0592,-2.0593,-2.0593,-2.0585,-2.0585,-2.0585,0,0,-2.0953,-2.093,-2.0912,-2.0891,-2.0859,-2.0838,-2.0834,-2.0796,-2.0782,-2.0756,-2.0735,-2.0715,-2.0672,-2.0651,-2.0634,-2.063,-2.0614,-2.0622,-2.0631,-2.062,-2.0621,-2.0621,-2.0621,-2.0621,-2.0621,-2.0622,-2.0622,0,-2.0964,-2.0931,-2.0905,-2.0885,-2.0868,-2.0843,-2.0826,-2.0806,-2.0767,-2.0756,-2.0751,-2.0699,-2.0675,-2.0647,-2.0646,-2.0633,-2.0629,-2.0626,-2.0623,-2.0623,-2.0623,-2.0623,-2.0622,-2.0623,-2.0623,-2.0623,-2.0622,0,-2.0947,-2.0925,-2.0914,-2.0879,-2.0861,-2.0842,-2.0814,-2.0799,-2.0784,-2.0764,-2.0738,-2.071,-2.0679,-2.0671,-2.0655,-2.0641,-2.0639,-2.0629,-2.062,-2.0626,-2.0625,-2.0624,-2.0625,-2.0624,-2.0624,-2.0623,0,0,-2.0958,-2.0911,-2.0908,-2.0893,-2.0856,-2.0839,-2.082,-2.0792,-2.0781,-2.0755,-2.0739,-2.0705,-2.0697,-2.0678,-2.066,-2.0651,-2.0651,-2.0642,-2.0641,-2.0646,-2.0637,-2.0645,-2.0645,-2.0641,-2.0641,-2.0641,-2.064,0,-2.0952,-2.0918,-2.0895,-2.087,-2.085,-2.0828,-2.0812,-2.0789,-2.077,-2.0751,-2.073,-2.0708,-2.0697,-2.0686,-2.0676,-2.0653,-2.0649,-2.0653,-2.0626,-2.0626,-2.0636,-2.0644,-2.0652,-2.0652,-2.0639,-2.0639,-2.0639,0,-2.094,-2.0918,-2.0891,-2.086,-2.0851,-2.0837,-2.0811,-2.0793,-2.0767,-2.0754,-2.0736,-2.0718,-2.0698,-2.0692,-2.0664,-2.0668,-2.0656,-2.0644,-2.0643,-2.0639,-2.0633,-2.0641,-2.0651,-2.0651,-2.0638,-2.0638,-2.0638,0,-2.0953,-2.0916,-2.0895,-2.0883,-2.0846,-2.0837,-2.0821,-2.0795,-2.0781,-2.0758,-2.0749,-2.0724,-2.071,-2.0692,-2.0668,-2.0665,-2.0644,-2.0635,-2.0634,-2.0634,-2.0629,-2.063,-2.0638,-2.0622,-2.0622,-2.0622,-2.0622,0,-2.0949,-2.0934,-2.0901,-2.0888,-2.0871,-2.0847,-2.083,-2.0813,-2.0791,-2.0775,-2.0754,-2.074,-2.071,-2.0692,-2.0673,-2.0655,-2.0648,-2.0638,-2.0634,-2.064,-2.0642,-2.0632,-2.0631,-2.0621,-2.0621,-2.0621,-2.0622,0,-2.0959,-2.0937,-2.0914,-2.0882,-2.0874,-2.0863,-2.0836,-2.0823,-2.0805,-2.0786,-2.078,-2.0751,-2.0729,-2.0705,-2.0674,-2.0662,-2.0645,-2.0638,-2.0654,-2.0652,-2.0652,-2.0653,-2.0654,-2.0653,-2.0637,-2.0637,-2.0637,0,-2.0958,-2.0947,-2.0915,-2.0904,-2.0889,-2.087,-2.0857,-2.0833,-2.0819,-2.0791,-2.0782,-2.076,-2.074,-2.0707,-2.0683,-2.0661,-2.0653,-2.0655,-2.0649,-2.0658,-2.0654,-2.0656,-2.0655,-2.0657,-2.0657,-2.0657,-2.0657,0,-2.096,-2.095,-2.0931,-2.091,-2.0894,-2.0875,-2.0856,-2.0848,-2.082,-2.0806,-2.0785,-2.077,-2.0741,-2.0719,-2.0694,-2.0678,-2.0664,-2.066,-2.0659,-2.0665,-2.0676,-2.0671,-2.0659,-2.066,-2.0659,-2.0659,-2.0659,-2.0659,-2.0965,-2.0954,-2.0931,-2.0912,-2.0895,-2.0878,-2.0866,-2.0848,-2.083,-2.0805,-2.0792,-2.0772,-2.0749,-2.0715,-2.0699,-2.0683,-2.0678,-2.0676,-2.0675,-2.0675,-2.0678,-2.0679,-2.0678,-2.0678,-2.0678,-2.0678,-2.0678,0,-2.0966,-2.0951,-2.0933,-2.0908,-2.0893,-2.0883,-2.0862,-2.085,-2.0833,-2.0813,-2.0795,-2.0772,-2.0752,-2.0728,-2.0707,-2.0699,-2.0692,-2.0694,-2.0694,-2.0691,-2.0683,-2.0687,-2.07,-2.07,-2.07,-2.07,-2.07,-2.07,-2.0965,-2.0947,-2.0935,-2.091,-2.0895,-2.0876,-2.0865,-2.085,-2.0835,-2.0811,-2.0794,-2.078,-2.0759,-2.0736,-2.0718,-2.0711,-2.0705,-2.0709,-2.0701,-2.0693,-2.0691,-2.069,-2.0693,-2.0708,-2.0708,-2.0711,-2.0711,-2.0711]}]]